EHI
0 0 0 0 0 0 0 0 0 0 0 0 1 4 8 10 12 17 30 44 52 51 45 41 39 40 43 44 42 43 48 50 46 40 33 27 23 20 18 15 10 5 2 2
0 0 0 0 0 0 0 0 0 0 0 0 2 5 9 11 12 16 26 39 47 48 46 42 38 38 41 43 40 40 44 43 39 36 33 29 24 19 16 15 10 4 1 2
0 0 0 0 0 0 0 0 0 0 0 0 2 5 9 11 14 17 21 28 36 41 42 41 38 35 36 38 35 34 38 36 32 32 32 29 24 17 14 15 10 4 1 1
0 0 0 0 0 0 0 0 0 0 0 0 1 3 7 10 14 16 17 21 26 32 37 38 36 33 34 34 32 31 34 34 31 31 31 27 18 13 15 17 15 8 2 0
0 0 0 0 0 0 0 0 0 0 0 0 0 1 4 9 13 13 13 16 22 27 32 34 34 34 33 32 33 35 38 39 36 34 31 23 14 15 19 22 22 15 4 1
0 0 0 0 0 0 0 0 0 0 0 0 0 0 2 7 11 10 10 14 19 24 28 32 35 35 33 33 36 41 44 44 41 36 29 22 18 22 26 27 24 15 5 2
0 0 0 0 0 0 0 0 0 0 0 0 0 0 1 4 7 8 8 11 14 19 26 31 35 36 35 36 39 43 45 45 41 36 30 25 24 25 26 25 20 11 4 2
0 0 0 0 0 0 0 0 0 0 0 0 0 0 1 2 3 4 6 6 7 13 23 30 34 36 36 39 41 43 43 42 39 36 33 30 26 23 20 19 13 7 4 4
0 0 0 0 0 0 0 0 0 0 0 0 0 0 1 3 2 2 3 3 3 8 17 28 34 35 36 39 43 46 45 43 39 38 37 33 27 21 18 16 11 7 8 8
0 0 0 0 0 0 0 0 0 0 0 0 0 0 1 4 4 2 1 2 3 6 13 23 32 36 37 41 46 49 48 44 41 41 38 33 28 24 22 19 16 15 16 16
0 0 0 0 0 0 0 0 0 0 0 0 0 0 1 3 3 1 0 2 4 8 11 19 29 35 38 42 46 49 49 47 45 45 42 37 35 32 29 27 26 26 26 25
0 0 0 0 0 0 0 0 0 0 0 0 0 0 0 1 1 1 1 3 8 12 13 18 28 37 41 44 47 50 52 51 50 51 50 47 45 44 41 38 38 37 34 30
0 1 1 1 0 0 0 0 0 1 0 0 0 0 0 0 0 1 3 7 13 18 19 23 34 43 46 49 53 57 58 56 53 54 56 55 54 54 52 51 50 48 40 33
1 1 2 1 0 1 0 0 0 0 0 0 0 1 2 2 2 5 10 14 17 20 26 33 43 50 53 55 60 63 62 59 56 55 57 59 58 58 60 61 60 55 44 35
1 1 1 1 0 0 0 0 0 0 0 0 2 5 8 8 10 15 20 21 23 27 34 45 53 58 61 62 63 64 65 64 61 60 61 64 64 62 64 66 65 59 46 34
2 2 1 0 0 0 0 0 0 0 1 1 5 11 16 19 23 27 28 27 29 35 43 54 64 69 70 70 67 66 67 68 68 68 69 71 71 69 68 68 66 61 50 38
3 4 2 0 0 0 0 0 0 1 3 5 11 18 24 28 32 32 31 31 32 37 46 60 71 77 78 76 74 70 69 71 74 74 74 75 75 72 70 69 68 66 56 46
3 4 3 1 0 0 1 2 1 3 6 11 16 21 24 27 28 29 31 31 33 37 48 61 71 76 78 77 75 71 68 69 73 74 74 75 74 71 71 71 72 71 64 55
1 2 2 1 0 0 1 2 2 4 9 14 17 19 20 20 22 26 28 29 33 39 48 59 63 66 70 72 70 66 62 61 64 66 68 68 67 66 69 71 72 72 68 62
1 1 1 0 0 0 0 1 1 4 11 14 16 18 20 22 26 30 28 26 28 33 41 49 51 55 62 65 63 59 53 51 52 54 56 59 60 61 62 63 64 64 62 59
0 0 0 0 0 0 0 0 1 7 14 15 15 18 23 29 32 31 26 20 19 23 28 33 36 42 50 52 51 48 43 41 42 44 46 49 51 51 49 51 52 52 50 49
0 0 1 1 2 4 5 5 6 12 17 17 16 18 21 25 27 25 19 13 13 15 17 19 21 26 30 32 32 32 31 31 32 34 35 38 40 37 35 38 40 39 38 36
0 1 2 4 6 9 12 12 11 12 15 16 16 15 16 16 16 14 12 9 8 9 10 11 12 13 14 15 16 17 18 19 19 20 21 24 26 24 23 24 25 24 22 21
0 1 2 3 6 9 12 13 12 10 11 12 11 11 11 10 8 7 7 6 5 3 4 6 7 7 6 7 8 9 9 10 9 9 10 12 13 12 12 12 10 9 8 8
0 0 1 1 2 4 7 9 9 8 8 7 8 8 7 6 5 5 5 5 3 1 2 3 3 3 2 2 3 4 5 6 6 5 5 5 4 4 4 4 3 2 1 1
0 0 0 0 0 2 4 6 6 5 5 7 7 5 4 5 6 6 6 5 3 1 1 1 1 1 0 0 1 2 4 5 5 5 3 2 1 1 1 1 1 1 0 0
Wind_Speed
16 15 13 13 12 12 12 13 11 8 6 7 8 6 4 7 7 6 7 8 9 11 11 11 11 12 11 11 10 9 9 8 7 5 4 4 4 4 4 4 5 4 4 3
16 18 17 15 13 12 13 13 12 8 8 8 8 6 1 2 5 5 7 8 9 11 12 12 11 11 12 11 10 9 10 9 8 5 4 4 4 4 4 4 5 4 4 4
20 16 15 15 13 13 13 11 11 12 12 9 8 6 2 4 5 7 8 9 11 13 13 13 13 12 12 12 12 10 10 10 9 8 5 4 3 3 4 5 4 4 4 3
20 19 17 15 13 13 12 10 12 14 13 8 6 3 3 6 7 7 8 9 11 12 13 14 14 13 13 12 11 10 10 9 9 8 7 8 6 5 5 5 5 5 4 4
19 19 18 16 14 13 13 12 13 14 12 10 8 5 5 9 9 10 10 10 11 13 15 15 14 14 14 13 12 11 10 9 9 8 8 7 6 5 4 5 7 5 4 4
21 19 17 16 14 14 12 13 13 9 5 6 9 7 3 7 8 9 10 10 11 13 15 15 14 13 12 13 12 12 11 10 9 8 8 7 7 6 6 6 7 5 4 4
22 21 19 16 16 14 12 10 8 5 2 5 10 8 3 6 8 9 11 11 12 13 14 15 15 15 13 14 14 13 12 10 9 9 8 7 6 6 6 6 7 6 5 5
19 17 17 16 16 14 12 12 9 6 5 6 6 5 3 4 8 10 11 12 13 13 13 14 15 14 13 14 13 14 13 11 11 9 8 7 7 5 5 6 5 6 4 6
18 16 13 13 16 17 14 12 9 8 10 9 2 3 4 3 5 10 12 12 13 13 14 15 15 15 14 14 13 14 13 12 11 10 8 7 7 6 6 7 5 4 3 5
19 17 14 11 14 15 14 11 7 7 7 8 1 3 2 2 4 7 11 12 13 13 14 15 15 15 14 14 13 14 13 12 11 10 9 9 8 6 5 5 6 4 4 4
20 19 17 13 12 11 9 10 8 8 8 7 4 1 5 7 6 7 10 11 12 13 14 14 13 14 14 14 14 13 13 12 11 11 9 8 9 8 7 5 6 5 4 5
14 14 14 14 7 6 10 10 8 8 9 8 6 1 3 1 5 5 7 9 10 11 12 13 13 13 12 13 14 14 14 13 12 11 10 9 8 8 8 8 7 6 6 6
8 10 12 13 7 2 5 10 10 8 8 7 7 1 3 2 3 2 5 8 7 8 10 10 10 10 11 12 12 14 14 14 13 12 11 10 9 9 9 8 7 7 7 7
7 9 12 13 5 3 4 12 14 9 7 7 7 1 3 1 1 1 3 7 9 8 8 9 9 9 9 9 10 11 12 13 13 12 11 10 10 9 9 7 7 8 8 8
9 12 13 11 7 9 10 12 13 13 12 10 6 2 1 4 3 3 4 5 6 7 7 8 8 8 7 7 8 10 10 10 10 11 11 11 10 9 8 8 8 8 8 10
8 9 11 12 10 11 13 15 16 15 12 9 4 2 2 5 6 5 6 5 4 5 4 5 6 7 7 7 7 7 7 8 9 10 10 10 10 10 10 9 9 9 8 8
6 6 10 11 9 10 12 9 9 8 6 4 2 5 7 7 7 7 6 6 6 4 3 3 3 4 5 6 6 6 5 6 7 7 7 7 8 9 9 11 10 9 8 8
8 8 7 9 8 11 4 2 2 2 1 2 6 9 10 8 8 8 8 9 8 8 6 4 3 3 3 2 4 4 5 4 5 6 6 6 7 7 7 7 7 7 7 7
9 7 6 7 8 7 4 3 1 1 3 5 7 7 9 11 12 10 10 10 10 10 9 8 6 5 5 4 3 4 3 3 3 2 2 3 4 5 6 6 5 5 5 5
8 7 8 7 6 5 1 3 3 1 4 5 6 6 6 7 7 7 9 10 11 11 10 10 10 10 9 8 7 6 5 5 3 2 2 2 1 2 3 4 4 3 4 5
8 9 10 8 4 1 2 1 2 2 4 5 7 9 8 10 10 10 11 11 11 11 11 11 11 11 10 9 9 8 8 6 4 4 4 4 3 2 1 1 2 2 3 4
4 4 5 5 4 1 2 2 3 6 6 6 9 12 14 15 14 13 12 11 11 11 11 11 10 11 10 10 9 9 8 7 6 5 5 5 4 2 1 0 1 2 3 3
3 3 2 2 2 5 6 8 7 8 9 8 10 13 14 15 14 13 12 11 11 11 11 10 11 11 11 11 10 9 8 7 7 7 6 5 5 4 3 2 1 1 2 3
2 1 1 2 5 5 6 8 8 8 9 11 12 13 14 14 14 13 11 11 11 11 10 10 10 10 10 10 9 8 7 6 6 6 5 4 3 2 2 1 1 1 1 2
2 2 2 3 3 5 6 8 9 10 12 13 14 15 14 15 14 13 11 10 10 10 9 9 9 9 9 8 8 7 7 6 6 5 4 4 3 2 2 1 1 1 1 0
3 2 2 2 2 4 6 8 11 12 13 14 16 15 14 14 13 12 11 9 9 9 8 8 9 9 8 8 8 8 7 7 6 5 4 3 2 2 1 1 1 1 2 3
Wind_Direction
230 235 246 255 263 274 285 291 300 310 307 288 287 281 213 187 189 191 176 169 163 166 163 160 162 165 160 155 161 159 146 145 145 146 152 157 161 157 142 139 144 154 147 127
240 238 249 262 268 274 281 292 301 305 292 280 290 295 329 182 190 194 178 173 165 165 165 165 167 169 163 157 161 162 153 156 156 152 162 167 159 160 144 136 144 157 153 155
237 246 246 252 266 274 282 294 299 299 291 285 286 285 161 202 186 181 177 177 173 172 171 168 166 170 165 163 168 169 162 160 162 159 169 159 141 153 141 143 158 166 159 143
244 249 255 258 265 274 280 288 292 293 292 296 290 279 185 199 195 190 180 179 175 171 168 168 169 172 171 168 169 164 162 164 165 168 173 166 171 175 164 163 156 164 166 153
245 248 252 256 262 271 283 294 293 298 310 315 317 298 193 188 195 191 179 178 174 169 168 170 174 172 170 168 168 165 163 167 169 178 177 179 176 174 161 153 148 163 164 170
256 256 254 255 260 265 276 285 287 299 332 320 287 279 220 185 181 164 162 165 167 166 167 168 169 166 166 165 164 164 165 170 173 181 176 187 180 175 160 158 155 172 167 180
251 255 257 258 258 261 261 273 287 310 340 265 261 264 187 167 144 144 151 156 162 165 166 167 167 167 168 167 167 166 166 170 176 181 177 185 184 175 165 169 170 186 178 180
245 244 245 250 256 258 257 258 268 284 274 263 248 252 120 112 120 133 143 152 160 166 168 170 170 170 172 170 169 166 169 174 179 181 178 180 181 182 180 193 188 192 200 176
251 253 243 240 248 248 255 260 272 273 272 277 233 4 51 90 127 141 146 155 161 167 170 172 172 174 176 175 173 170 172 177 181 182 177 181 186 202 191 177 205 197 184 152
249 262 254 234 239 239 246 263 276 280 287 294 10 48 305 277 220 175 156 159 162 166 171 173 173 177 178 177 172 168 172 178 181 179 180 185 191 197 191 186 195 202 178 157
234 249 256 241 235 252 251 248 258 277 284 294 299 210 206 237 236 208 163 160 163 170 169 171 174 175 175 175 172 171 172 177 181 184 188 187 185 188 191 201 190 188 178 162
242 241 250 251 238 260 265 258 252 257 269 280 289 143 135 199 261 208 150 148 160 167 167 169 171 169 173 176 175 175 177 183 186 185 185 189 186 187 191 198 192 183 180 178
257 243 244 244 238 265 287 289 279 264 263 268 280 129 94 4 301 226 141 136 149 163 162 162 164 170 175 177 177 177 181 185 188 188 187 188 191 192 196 195 188 185 183 190
270 246 246 253 217 155 267 283 286 277 259 261 263 183 134 111 271 65 119 141 154 161 157 159 167 173 177 178 176 175 182 185 187 187 189 191 196 197 197 195 190 190 188 193
258 244 247 252 194 173 204 236 255 258 261 266 264 258 197 161 149 112 116 124 136 145 158 163 167 167 166 177 183 181 181 183 186 186 190 192 192 193 196 194 191 191 193 200
260 253 255 251 232 213 213 218 230 240 248 254 226 155 107 102 101 81 72 75 94 118 138 151 158 159 165 180 183 182 185 184 182 186 192 191 189 192 197 195 192 190 194 201
288 268 257 251 251 254 240 235 240 251 259 268 213 123 103 87 85 76 68 63 62 66 95 113 129 143 163 172 171 175 178 182 184 189 195 189 189 195 197 198 195 195 194 198
272 266 260 255 248 249 258 315 305 281 316 67 98 106 107 105 88 66 61 57 50 44 45 58 83 97 111 135 161 162 167 165 171 177 186 183 188 195 195 200 197 196 194 198
243 232 242 247 237 252 293 359 43 146 62 72 96 106 118 123 106 75 60 61 56 49 42 44 50 68 66 67 86 108 122 128 132 143 164 181 192 186 185 195 197 192 191 195
223 221 236 238 229 227 247 349 337 95 88 49 82 96 107 118 102 81 64 60 56 51 45 43 45 49 51 47 57 74 75 65 63 69 80 80 104 179 186 187 191 193 193 200
213 216 229 235 229 184 67 323 267 162 102 61 77 81 86 78 91 98 83 68 61 59 56 52 51 49 44 46 57 61 58 51 43 54 60 59 50 53 72 136 158 179 205 213
280 243 230 236 223 206 9 68 60 92 92 78 85 92 94 95 95 92 85 77 68 63 60 62 59 54 46 48 57 57 49 38 35 47 59 56 51 40 22 131 174 198 216 221
345 2 354 7 86 81 70 87 104 106 103 100 96 99 102 101 99 94 87 79 71 65 59 59 65 61 52 47 52 52 36 30 36 41 43 49 48 38 24 19 7 259 247 248
343 11 107 79 76 75 85 96 93 96 100 97 96 100 102 101 97 90 83 76 70 65 61 58 61 61 56 50 49 49 42 31 32 34 30 30 42 26 36 38 5 343 326 308
343 358 50 104 108 82 73 92 97 97 96 95 93 94 96 97 95 92 84 76 71 67 62 59 58 58 56 51 46 40 33 33 35 31 27 10 10 17 28 16 2 4 32 32
38 29 55 98 107 114 107 97 100 98 96 93 93 90 87 88 90 88 82 77 73 68 62 60 56 53 51 49 44 36 30 26 22 18 9 356 355 1 332 307 297 291 268 228